Theta_e
347 349 350 349 350 349 348 345 346 345 348 347 347 345 342 341 341 339 340 339 336 336 335 337 340 342 339 335 335 337 340 341 340 340 343 344 343 345 343 343 340 339 339 338 339 337 336 335 335 335 335 333 332 333 335 334 333 332 330 330 330 332 333 332 330 329 328 329 329 329 328 327 328 330 329 329 330 333 334 335 336 336 336 336 336
349 350 348 349 351 349 347 345 344 350 349 348 351 348 348 346 343 341 337 340 339 338 336 336 334 337 340 339 336 337 340 339 341 341 342 343 345 347 343 342 341 340 339 339 339 338 337 336 336 337 336 335 334 333 334 333 332 332 331 330 330 331 332 330 330 329 329 330 330 330 330 329 328 328 328 328 330 333 333 335 335 335 335 335 335
350 349 349 349 350 350 348 347 345 350 349 346 348 347 347 344 345 343 342 341 341 341 340 340 338 335 337 338 339 341 341 342 341 342 342 341 343 346 341 342 342 341 339 339 340 339 338 338 338 337 337 335 335 334 334 331 332 332 331 330 329 330 331 330 331 329 329 329 330 330 329 329 329 329 328 329 331 332 333 334 334 334 335 335 335
348 347 349 347 348 348 349 348 346 345 347 346 346 347 346 345 346 348 349 346 342 339 340 339 339 336 336 335 338 338 338 341 343 342 342 343 344 349 344 342 342 341 340 339 339 341 339 339 338 338 338 336 336 335 336 334 334 333 332 331 330 330 330 330 330 329 329 329 330 330 330 329 329 329 329 329 330 331 332 334 334 334 334 334 334
347 347 346 348 349 349 349 349 348 348 349 349 349 350 348 347 348 348 347 346 344 344 340 340 339 339 338 336 336 336 339 340 342 343 342 342 343 348 346 344 343 341 340 340 340 340 340 338 338 339 338 337 337 337 337 336 335 334 332 331 330 330 330 329 330 330 330 330 330 330 330 330 330 329 329 330 330 330 330 333 333 333 334 334 334
348 346 346 347 348 348 348 348 348 350 350 350 348 347 346 346 346 345 344 344 343 343 341 341 339 338 339 339 338 339 338 338 341 342 341 339 341 345 344 346 343 343 338 340 340 340 339 339 338 338 338 338 338 338 338 336 336 334 333 332 331 330 330 329 330 330 329 330 331 331 331 330 330 330 330 330 329 329 329 331 332 333 333 333 333
348 347 347 345 345 346 346 347 349 348 348 349 348 348 347 346 345 344 345 344 343 343 343 343 342 342 340 338 337 337 338 338 341 342 340 340 340 339 338 342 342 341 341 339 340 340 339 339 339 338 338 339 339 339 339 338 335 334 334 333 331 330 329 330 330 330 330 331 331 331 331 331 331 330 330 330 330 328 328 330 332 333 333 333 333
348 348 348 348 345 346 345 350 348 348 348 347 346 343 345 343 343 344 342 342 342 341 343 342 342 341 342 343 343 341 339 339 341 340 341 341 338 338 336 340 345 343 343 344 340 338 339 339 339 339 339 339 339 340 340 339 335 336 335 333 331 330 330 330 331 331 330 331 332 331 331 331 331 331 330 330 330 329 329 330 332 332 332 332 332
349 348 349 348 346 347 345 347 347 345 344 345 343 343 342 340 342 341 341 338 338 338 340 342 341 340 341 341 341 341 341 341 340 338 338 338 338 339 337 335 343 343 344 342 339 341 339 338 340 339 339 339 339 339 339 339 336 336 336 334 332 331 331 331 332 332 331 332 332 332 332 331 331 331 331 330 330 330 330 330 333 332 332 332 332
351 348 349 347 347 346 347 349 348 347 345 344 343 344 343 342 340 341 339 340 338 339 337 337 338 339 339 339 341 341 339 341 343 339 339 337 337 339 338 337 337 342 340 341 341 341 340 338 339 339 339 338 337 339 339 339 337 336 336 335 333 332 330 333 333 332 331 333 333 332 332 332 331 331 331 330 330 330 330 330 332 331 331 331 332
348 348 348 346 348 348 349 349 348 347 347 344 342 341 342 341 340 340 342 342 341 341 340 341 341 340 338 338 339 341 341 341 342 340 339 341 339 337 337 338 339 340 341 340 341 342 344 339 337 336 336 338 338 337 339 338 336 335 336 336 334 332 331 331 334 333 331 333 333 333 332 331 331 331 331 331 331 330 330 330 331 331 331 331 331
346 349 349 349 348 347 348 349 348 347 344 342 340 338 339 339 340 338 338 339 340 341 341 339 338 338 338 339 341 341 343 342 340 340 340 341 339 340 340 338 338 338 340 342 342 343 341 342 340 337 337 337 337 336 337 338 337 335 334 336 335 333 331 331 333 334 331 332 333 333 332 332 331 331 331 331 331 331 331 330 331 331 331 330 330
348 349 349 348 348 346 347 348 348 343 342 343 341 341 341 341 340 341 339 338 340 341 340 338 335 334 336 337 339 341 341 340 340 339 339 340 340 339 340 340 340 337 337 340 341 343 343 343 341 341 339 338 337 337 335 336 336 335 334 335 335 334 333 332 333 334 333 332 333 333 332 332 332 331 331 332 331 331 331 331 330 330 330 330 330
345 345 348 346 345 345 345 344 342 342 342 342 341 339 340 342 343 337 339 338 337 339 340 339 334 331 328 330 332 335 338 339 340 340 340 339 339 339 340 339 341 339 339 339 340 342 343 343 341 340 340 340 339 335 335 335 335 335 334 334 334 334 334 333 332 333 334 333 334 333 332 332 332 331 332 332 331 331 332 331 331 330 330 330 330
344 343 343 344 343 342 342 342 342 341 340 339 339 339 340 340 340 339 338 339 337 339 338 340 332 334 333 329 325 326 332 338 340 337 335 336 338 339 338 338 338 339 341 338 338 342 340 340 340 341 340 339 340 338 335 334 334 334 335 334 334 333 334 335 334 333 335 335 334 334 332 332 331 332 332 332 332 332 331 331 331 330 330 330 330
340 340 341 341 340 341 341 341 341 341 340 338 338 337 338 339 339 340 338 334 335 335 339 339 337 334 325 325 325 325 322 327 331 336 339 338 339 337 336 337 339 338 342 339 339 342 340 342 339 338 341 341 341 339 337 335 334 334 332 331 332 333 334 335 334 333 335 336 335 334 332 332 332 332 332 332 332 331 331 331 331 331 330 331 331
338 338 338 338 338 339 338 338 338 340 338 336 337 337 338 338 338 337 336 335 333 334 336 338 338 338 332 328 323 322 321 325 327 328 338 337 339 338 335 336 337 336 340 342 342 342 337 337 339 341 337 337 339 340 340 338 336 336 334 332 332 333 334 335 334 333 335 337 335 335 333 332 332 331 332 332 331 332 331 331 331 331 331 331 331
336 336 336 336 337 337 338 337 336 338 337 336 337 337 337 337 337 337 336 337 335 332 332 336 338 338 338 335 330 325 324 327 326 322 332 335 338 337 337 335 336 337 341 341 340 340 340 336 338 340 336 335 338 341 339 340 338 336 334 331 329 331 332 333 335 333 335 336 336 336 335 333 332 331 332 332 332 332 331 331 331 331 332 331 331
334 334 334 334 335 336 337 337 335 336 336 336 336 336 336 337 337 337 336 336 336 332 331 332 334 336 336 336 333 331 332 328 323 325 322 328 332 333 335 337 338 337 335 339 338 338 338 338 336 337 338 341 338 339 340 340 338 335 336 333 329 326 327 328 334 335 336 338 337 337 336 334 333 332 332 333 332 332 331 331 331 331 331 331 331
332 332 332 332 333 332 333 332 332 333 332 333 333 333 333 335 336 336 336 336 335 332 332 332 330 330 335 335 334 334 334 332 331 327 323 321 324 332 335 336 337 337 338 334 337 337 337 336 334 335 338 341 340 338 338 339 339 338 334 329 328 326 326 327 328 328 334 337 339 337 337 335 335 332 332 332 332 331 331 332 331 331 331 330 331
331 330 330 330 330 330 330 329 329 329 329 329 331 330 330 330 330 332 332 333 334 335 333 331 332 330 332 332 333 332 333 334 332 330 326 324 324 325 328 333 338 338 338 340 338 338 338 338 338 339 341 341 340 339 338 337 338 338 335 328 327 326 325 326 323 322 322 331 337 338 338 336 336 334 333 332 331 331 331 331 331 331 331 331 331
330 328 327 328 329 328 327 327 328 328 327 328 329 329 328 328 328 329 329 329 330 331 330 331 332 333 333 333 331 330 330 330 329 328 328 329 325 323 325 326 325 330 340 340 337 338 338 339 341 341 341 340 340 341 338 337 337 338 334 328 327 325 326 326 320 321 322 322 330 334 335 334 334 335 333 333 333 332 331 331 331 331 332 331 330
327 327 325 326 327 325 325 326 327 326 325 324 325 325 326 326 327 328 328 327 326 326 327 328 328 328 329 330 329 329 327 327 327 328 329 325 325 324 326 325 325 325 330 334 336 336 336 339 340 340 339 339 339 339 339 339 335 334 331 327 326 325 326 324 318 318 319 325 325 332 335 335 336 335 333 333 333 333 332 332 331 332 332 331 331
324 324 324 324 325 324 324 324 324 324 323 324 323 323 325 325 325 325 325 325 326 326 325 324 325 325 325 327 327 328 329 328 329 329 328 328 327 325 324 326 326 326 329 332 332 333 337 337 338 337 339 339 339 339 339 339 338 333 332 327 324 325 326 325 319 318 316 320 323 327 334 336 336 334 333 333 334 333 333 332 332 332 332 332 331
321 321 321 322 323 322 322 321 322 322 322 322 323 323 323 323 323 324 324 324 323 322 322 322 323 322 323 325 324 325 325 327 328 328 329 330 328 324 325 326 323 324 327 328 327 330 331 332 336 338 337 338 339 339 339 340 340 334 329 330 324 323 322 327 325 319 316 315 318 324 331 334 334 334 334 334 333 334 333 332 327 324 326 326 328
321 320 320 321 321 322 321 321 321 321 320 320 320 321 320 321 322 321 321 321 320 320 321 323 322 322 323 322 322 322 322 325 325 325 325 326 325 325 324 325 326 324 326 326 326 324 327 331 334 337 339 336 337 339 340 338 339 331 328 332 328 321 320 322 324 321 318 316 315 320 324 329 332 334 332 332 332 329 328 323 321 321 320 319 319
319 320 320 320 320 321 320 319 319 319 319 319 319 319 319 319 319 320 319 319 318 318 318 319 318 319 320 320 320 321 322 323 324 324 324 323 323 323 323 320 321 324 323 325 326 325 325 328 331 332 335 337 339 339 339 340 335 332 328 332 335 322 318 319 321 323 319 317 313 314 317 321 323 324 324 325 324 322 323 324 323 320 319 319 319
319 320 320 320 319 319 319 318 318 319 318 318 318 318 318 318 317 317 317 317 316 317 317 317 317 317 318 318 318 319 321 321 322 322 322 322 321 322 322 320 318 316 320 321 323 323 328 325 328 331 335 337 338 339 335 335 338 329 328 335 333 330 318 317 319 323 321 319 317 316 315 316 318 319 320 320 324 324 324 325 323 320 318 318 322
318 319 318 318 318 318 318 318 317 317 317 317 317 317 317 317 316 316 315 316 316 316 316 316 317 317 317 317 317 317 318 320 320 320 320 321 322 322 322 320 320 316 315 316 319 321 325 327 324 328 332 338 338 339 339 338 334 334 337 335 335 334 324 317 316 318 320 318 316 315 316 317 318 319 324 325 325 325 325 322 321 320 319 321 324
318 318 318 317 317 317 317 316 317 317 316 316 316 317 317 315 315 315 315 315 315 316 316 315 316 316 316 316 317 316 318 318 318 319 319 319 319 320 320 320 320 318 318 314 316 322 323 328 329 328 330 337 340 341 340 338 330 332 336 335 333 333 323 316 314 314 316 317 314 312 312 315 318 322 327 326 324 323 322 320 319 319 320 323 325
318 317 316 316 316 316 316 316 316 316 316 316 316 316 315 314 314 313 314 313 313 313 315 315 315 315 315 315 316 316 317 316 316 317 318 318 318 318 318 318 318 318 317 317 312 318 324 323 327 330 331 333 336 338 338 338 335 334 335 335 334 327 325 322 315 314 314 315 313 313 315 314 314 318 321 324 324 323 323 322 322 322 324 326 321
316 316 315 315 314 314 314 314 314 314 314 314 315 314 314 313 312 311 312 313 312 312 313 314 314 314 314 314 314 314 315 314 314 315 315 315 315 314 314 314 315 317 317 315 313 313 320 322 324 327 329 332 337 336 338 337 336 326 336 335 335 326 328 329 317 314 314 313 313 315 318 316 314 317 319 322 322 323 324 322 323 325 323 319 316
315 314 314 314 313 313 312 312 311 311 312 312 313 314 312 312 312 312 311 311 311 311 312 313 314 314 313 312 313 313 313 312 311 312 312 312 311 310 311 311 311 313 313 312 310 312 316 321 321 323 326 333 332 334 335 336 337 337 330 336 334 332 332 333 330 314 312 312 311 311 311 312 312 318 320 322 324 324 322 320 321 319 318 316 314
314 313 313 313 313 312 311 310 310 309 309 310 311 312 311 311 311 311 311 310 310 311 312 311 312 312 312 310 310 310 311 310 310 309 309 308 307 307 308 308 308 309 311 309 309 309 310 316 318 322 323 325 326 330 331 333 334 334 335 336 335 333 331 332 332 328 312 312 311 310 310 311 310 313 315 314 316 316 316 314 313 313 316 314 310
314 313 312 312 311 310 309 309 308 308 308 308 309 310 310 310 310 310 311 310 310 310 310 310 310 311 310 310 309 309 309 308 307 307 307 306 305 305 305 306 306 307 308 309 308 307 307 310 315 316 320 323 325 326 330 333 335 335 334 334 333 333 332 332 331 332 314 310 309 310 309 310 310 310 311 312 313 312 313 313 312 311 311 311 308
312 312 312 310 309 309 308 308 307 306 306 306 307 308 309 309 310 309 310 310 309 309 309 309 309 309 308 308 308 307 307 305 305 305 305 304 304 304 304 305 305 306 307 307 308 306 307 306 310 313 317 319 322 325 327 331 335 334 335 334 333 332 331 331 331 331 322 310 309 309 310 310 309 309 309 310 311 312 311 311 311 310 309 310 309
311 311 311 310 308 308 307 306 306 305 305 305 305 306 308 309 310 309 309 309 309 308 309 309 309 308 308 307 306 306 305 303 303 302 302 302 302 302 302 303 303 304 305 305 306 306 305 305 308 312 315 317 320 324 326 325 329 333 334 333 332 331 330 331 331 331 322 310 310 309 309 309 308 308 308 309 310 310 310 310 310 310 310 309 309
310 310 310 309 308 306 306 306 305 305 305 304 304 304 306 308 309 309 309 308 308 308 307 308 307 307 306 306 306 305 304 302 301 301 302 302 302 301 301 302 302 302 303 303 304 304 304 305 306 308 313 314 317 321 325 326 329 328 330 331 332 331 330 329 329 330 330 320 316 315 311 309 309 308 308 309 309 309 309 310 310 310 310 309 308
309 309 308 308 308 307 306 305 305 304 304 303 303 303 305 307 308 308 308 307 308 307 307 307 307 307 306 305 305 304 303 302 301 301 301 301 300 300 301 301 301 301 301 301 302 303 303 304 305 307 309 313 315 316 321 325 327 329 327 327 323 329 330 330 327 329 329 325 315 312 314 313 312 312 308 307 308 310 309 309 310 310 310 308 307
309 308 308 307 307 307 306 305 305 304 303 302 301 301 303 305 307 308 307 307 306 306 307 305 306 306 305 305 305 304 303 303 302 301 301 299 299 299 300 300 300 300 300 301 302 302 302 303 304 305 307 309 312 316 320 323 325 328 329 326 323 325 327 330 329 328 328 328 320 317 313 311 311 311 308 308 309 309 310 310 311 311 311 309 307
309 308 308 307 307 306 306 305 304 303 302 301 300 299 300 302 303 306 306 306 305 305 304 304 305 305 305 304 304 304 304 305 302 301 300 299 299 297 299 299 299 299 300 300 301 301 302 303 303 305 305 306 309 311 313 316 321 320 325 329 324 325 328 329 329 331 330 328 326 320 318 317 315 315 315 314 314 311 312 311 314 311 311 308 307
309 309 308 308 306 306 304 304 304 303 301 300 296 294 294 298 302 306 306 305 305 304 304 304 304 304 304 303 304 304 303 302 301 299 297 297 298 298 298 299 299 299 300 300 301 301 302 302 302 302 302 303 305 308 310 313 318 324 324 326 323 325 326 325 327 328 330 328 326 322 320 320 317 317 317 315 316 313 316 315 319 316 311 307 307
308 308 308 307 307 305 304 303 303 303 301 297 292 292 292 293 299 304 305 305 304 304 303 303 302 302 303 302 303 303 303 301 301 298 296 296 295 295 296 297 299 300 300 299 300 301 301 300 300 300 300 301 304 306 308 309 312 318 319 321 323 324 322 321 318 325 332 330 326 325 323 322 319 316 317 318 317 316 316 317 312 311 310 307 307
308 308 308 307 307 306 305 304 303 302 300 294 291 292 292 292 294 300 306 305 304 304 303 303 302 302 301 301 302 302 302 301 301 299 298 296 295 295 296 296 296 296 296 299 300 300 299 298 298 299 300 301 303 305 306 307 310 314 315 316 318 323 321 320 320 320 328 330 327 325 323 322 320 318 318 319 320 318 317 314 309 309 309 307 306
308 307 307 307 307 307 305 303 302 301 299 293 291 292 292 291 292 296 305 304 304 303 303 303 302 301 301 300 301 301 301 302 301 297 297 297 297 297 298 299 299 299 295 294 295 300 300 299 299 299 300 301 301 303 305 305 307 307 309 312 316 320 324 323 322 324 330 330 327 322 321 322 320 316 318 320 320 320 318 311 309 308 308 307 306
306 306 307 307 307 306 305 304 302 301 298 293 291 291 292 291 292 293 305 304 304 303 303 303 302 301 301 300 300 300 300 300 299 296 296 296 298 300 301 302 302 302 299 297 296 296 298 299 299 298 300 301 301 303 305 305 303 303 306 309 314 316 321 322 324 326 329 331 326 323 321 322 320 318 316 320 321 320 320 314 308 307 307 307 306
305 305 305 306 306 306 305 304 302 300 298 291 291 291 291 291 291 296 306 305 304 304 304 303 303 302 302 301 301 299 299 299 297 294 295 295 298 300 299 299 301 302 302 302 300 299 298 298 298 299 300 301 301 302 303 304 304 304 306 307 310 313 316 325 326 328 328 329 328 324 317 321 320 318 318 320 321 320 321 312 307 307 307 306 305
305 305 305 305 305 305 306 304 302 300 299 291 291 291 291 291 291 305 305 305 304 304 303 303 303 303 302 300 300 299 299 298 295 291 293 296 299 298 297 298 299 300 300 299 296 296 298 297 298 299 300 300 297 299 301 302 303 305 306 309 313 314 316 319 320 323 321 326 330 325 318 319 319 317 317 321 321 319 320 320 309 307 306 306 305
304 304 304 304 304 304 304 304 303 300 299 294 291 291 291 291 295 305 305 304 303 303 303 303 303 303 302 300 299 299 299 298 294 290 291 294 299 297 297 297 297 297 297 299 297 295 294 294 294 294 294 295 295 296 297 298 300 302 305 308 311 316 316 317 318 318 319 323 324 326 321 317 318 317 316 316 318 317 319 319 319 307 306 306 305
303 304 305 304 303 303 303 303 303 301 299 295 291 292 291 291 294 303 304 304 303 303 303 303 303 303 303 300 300 298 298 298 292 290 290 295 298 297 296 296 295 295 296 297 298 298 296 295 295 295 295 295 296 297 299 299 298 301 306 304 307 309 313 316 316 318 321 322 322 326 320 318 319 318 313 307 306 305 307 310 311 313 306 305 305
304 305 305 304 304 303 302 302 301 302 300 297 293 291 292 292 295 303 303 303 303 302 302 302 303 302 302 302 299 297 297 295 290 290 290 294 298 298 296 296 295 294 295 297 297 296 296 296 297 299 299 299 302 302 302 300 300 304 307 306 307 306 308 311 314 317 317 317 321 325 318 317 317 316 313 308 308 305 304 307 307 309 311 311 310
Wind_Speed
2 2 2 2 1 1 2 1 2 2 0 2 3 3 4 5 5 5 6 6 5 5 6 7 6 6 6 8 7 6 6 6 6 6 6 4 2 9 12 13 12 11 12 12 12 10 11 11 9 8 9 7 8 9 11 9 8 6 6 5 5 4 5 5 4 3 3 4 4 3 3 4 6 8 5 3 3 5 6 6 7 8 9 10 11
1 1 1 1 2 2 2 2 2 1 2 3 2 2 5 6 5 6 7 6 6 6 6 7 8 8 7 7 8 7 6 6 6 6 5 4 3 4 10 12 13 11 12 12 13 12 11 12 11 10 10 10 9 10 10 10 8 8 7 6 6 5 6 5 5 4 5 6 5 5 5 5 4 5 5 3 5 6 6 6 7 8 9 10 11
0 1 1 2 1 2 3 2 2 1 1 2 3 3 5 6 5 5 6 6 5 5 5 6 7 9 8 9 8 7 7 6 6 6 6 5 3 6 5 9 10 12 12 12 13 13 13 13 13 11 11 10 11 11 12 9 8 9 8 7 7 7 8 7 6 5 5 6 6 6 5 5 5 5 5 5 7 7 7 7 8 9 9 10 11
1 1 1 1 2 2 2 2 2 5 6 6 6 5 5 5 6 5 5 6 7 7 7 6 7 8 9 10 8 8 8 7 7 7 6 5 4 1 3 4 8 12 14 14 14 13 13 14 13 12 12 11 11 11 12 10 10 10 9 8 8 7 8 8 7 7 7 7 7 7 6 6 6 5 6 7 7 7 7 7 8 9 10 10 11
1 1 1 1 1 1 2 2 3 2 2 2 4 4 5 5 5 5 6 6 7 7 8 7 8 8 9 10 8 9 7 7 6 6 6 6 6 4 4 5 5 9 12 16 15 14 14 14 14 13 13 13 12 12 13 11 11 12 10 9 9 8 8 9 8 9 8 8 8 8 7 7 7 6 6 8 8 7 6 8 9 8 9 10 10
3 3 1 1 1 2 1 2 1 1 2 3 4 4 4 5 5 5 6 6 7 6 7 7 8 8 8 9 9 8 8 8 7 7 8 8 7 6 5 7 6 6 10 17 17 16 16 14 14 15 13 13 13 13 14 13 12 13 11 11 10 9 9 9 9 10 9 9 9 9 8 8 8 8 8 8 8 8 6 8 9 9 9 9 10
3 3 2 2 2 1 2 1 0 2 3 2 3 4 4 5 4 5 5 6 7 7 7 7 8 8 9 9 9 9 9 8 8 9 9 9 9 9 7 7 8 8 8 9 15 18 17 16 16 15 14 13 14 15 15 14 13 13 13 13 11 10 9 10 10 11 10 11 10 10 10 9 9 9 9 8 8 7 6 6 9 10 9 10 10
3 3 2 2 2 1 1 0 1 2 2 2 4 4 4 4 5 6 6 7 7 7 6 7 7 8 8 7 7 8 9 9 9 10 9 9 10 9 9 7 7 6 7 6 8 14 19 17 16 15 15 14 16 16 16 16 13 14 14 13 11 11 11 11 11 12 12 11 11 11 11 10 10 10 10 9 8 8 8 8 10 10 11 11 10
2 2 1 2 1 1 1 1 1 2 2 3 4 4 4 4 5 6 6 7 8 8 8 7 8 8 7 9 8 8 8 8 9 10 10 11 11 10 9 11 9 9 8 9 8 9 16 18 17 17 16 14 15 16 17 16 14 14 15 14 13 12 12 12 12 13 13 12 12 12 12 12 10 10 10 10 9 9 10 10 12 12 12 11 11
1 1 1 2 2 1 1 0 1 2 3 4 4 4 4 5 6 6 6 7 7 8 8 8 7 8 8 8 7 6 9 9 5 7 10 11 10 10 10 10 8 9 9 9 10 9 9 16 19 17 16 15 12 14 16 17 16 15 16 16 14 14 13 13 14 14 14 13 13 13 12 12 11 11 11 11 10 11 11 12 12 12 12 12 12
1 0 1 1 1 1 1 1 2 2 3 4 4 4 4 5 6 7 6 6 7 7 7 7 7 7 8 9 9 8 8 9 8 8 10 8 7 11 10 10 8 9 9 10 10 10 8 9 11 11 13 17 14 15 16 17 15 16 16 17 16 15 14 15 15 16 15 14 14 13 13 13 13 12 11 11 11 11 12 12 13 13 12 12 12
2 2 2 3 2 2 3 3 3 3 4 5 5 5 6 7 7 7 8 7 7 7 7 7 7 8 9 9 9 10 10 8 9 9 8 7 8 9 9 9 10 10 10 9 7 8 9 9 10 10 10 14 17 15 16 15 15 13 16 18 17 16 16 15 16 16 15 15 15 15 14 14 14 13 13 12 12 12 12 13 13 13 13 13 12
4 3 3 2 2 3 3 3 3 4 4 5 6 6 6 6 6 6 7 7 6 6 6 7 8 8 7 9 8 9 9 9 10 9 8 10 8 9 9 9 10 11 10 9 8 8 8 6 7 8 8 7 12 17 16 15 15 14 16 18 19 18 17 17 17 17 16 16 16 16 15 15 15 13 14 13 13 13 14 14 13 13 13 13 13
4 4 4 4 4 3 3 4 5 4 4 5 6 5 6 6 5 6 4 6 6 6 6 6 6 7 9 8 9 8 9 9 9 6 8 8 9 8 7 7 9 9 8 8 9 5 6 5 7 6 6 7 7 10 11 13 15 16 16 16 18 19 19 19 18 18 18 17 18 17 17 17 16 15 15 14 14 14 14 14 14 14 14 14 14
6 6 5 6 6 6 5 6 6 6 6 6 6 6 5 5 6 5 6 5 5 5 6 5 7 7 9 9 8 9 2 1 3 4 7 10 8 6 6 8 11 9 7 8 6 3 4 7 4 5 7 8 7 9 11 13 13 17 17 15 16 20 20 20 20 19 20 19 18 19 18 17 16 17 16 15 15 15 15 14 15 15 15 15 15
6 6 5 6 7 6 6 6 6 6 6 6 6 7 6 6 6 6 6 7 5 5 5 6 6 6 6 6 9 8 9 1 4 4 9 9 7 6 6 7 8 10 8 6 6 4 4 3 6 9 6 6 5 7 9 10 15 16 19 16 15 17 20 21 21 20 21 21 20 20 18 18 18 18 17 16 14 14 15 16 16 15 15 15 15
5 6 6 5 5 5 6 6 6 7 6 7 7 7 8 7 7 7 7 6 8 7 6 5 5 4 7 7 6 5 6 8 10 9 2 4 5 6 7 8 8 9 9 7 6 4 5 7 8 6 8 10 10 8 6 8 11 12 14 18 17 16 18 20 21 20 22 22 22 21 20 19 19 17 16 13 15 14 16 17 17 16 16 16 16
5 6 6 6 6 6 6 7 7 7 6 6 6 7 8 9 8 7 8 7 7 8 8 6 5 5 6 7 5 7 8 9 9 8 4 7 6 6 6 7 8 10 8 7 7 7 5 5 8 7 9 11 9 2 9 9 9 8 9 13 20 18 18 19 22 21 23 22 23 22 23 21 19 16 17 16 17 17 18 18 18 18 18 18 18
7 6 6 6 6 6 7 6 7 6 6 6 6 7 8 9 9 9 9 8 8 8 9 8 7 6 6 3 5 9 9 8 9 9 10 5 5 5 7 8 9 8 10 7 7 7 6 7 6 8 9 7 5 5 5 3 5 9 13 14 20 20 19 18 20 23 24 23 24 24 24 23 22 18 20 19 18 19 20 19 19 19 18 18 18
7 7 7 7 7 7 8 8 7 7 7 7 8 8 8 9 10 10 9 9 9 8 9 9 8 8 7 7 8 9 8 9 10 6 10 12 9 5 6 6 7 8 8 9 9 9 9 6 8 9 10 7 6 5 7 6 6 9 10 14 19 20 19 19 19 19 21 25 24 25 24 24 23 22 22 21 19 19 20 20 19 18 18 19 18
7 7 7 7 6 6 7 7 7 6 6 7 7 8 9 9 10 9 9 9 9 9 9 9 9 10 10 9 9 9 9 8 9 9 9 11 12 10 9 4 6 7 9 8 8 8 8 8 10 12 9 7 7 7 7 8 7 7 8 12 18 22 21 21 19 20 19 18 24 26 28 26 26 24 22 21 20 20 20 20 18 18 18 18 18
6 7 7 8 7 8 7 7 6 7 7 8 8 9 8 8 9 9 9 10 9 9 10 10 10 10 10 10 10 9 9 8 7 8 8 9 10 11 11 12 11 7 6 7 9 8 8 10 10 10 10 9 8 7 7 8 8 8 11 15 17 21 22 21 21 20 20 18 12 18 21 19 25 25 23 21 22 22 21 20 20 21 20 20 18
5 5 6 7 6 6 7 7 6 7 7 8 8 8 8 8 9 9 8 9 8 10 10 10 10 11 12 11 10 10 10 11 11 10 9 10 11 11 11 11 12 12 8 8 8 10 9 7 8 10 10 9 9 10 9 8 10 10 11 11 12 18 21 21 21 21 20 19 15 14 21 23 25 25 25 23 23 23 23 23 23 22 21 20 19
5 5 6 7 6 6 7 7 6 7 7 6 7 7 7 7 7 7 8 9 9 9 9 10 11 10 11 10 11 11 11 11 11 11 11 11 11 12 12 12 12 10 10 9 10 10 8 8 9 10 10 9 10 10 11 11 9 15 11 12 15 17 20 21 21 21 21 20 17 17 18 24 26 25 25 25 24 25 24 24 23 23 23 22 22
5 5 6 7 6 6 6 7 6 7 7 8 8 9 9 7 7 8 8 9 9 10 9 10 10 10 9 10 10 10 11 11 12 12 11 11 11 12 12 12 13 12 10 10 9 9 9 9 7 6 9 9 9 9 10 11 10 11 14 10 16 17 20 21 22 22 22 21 19 18 18 21 24 25 25 26 25 25 25 24 21 19 19 18 20
5 6 6 6 6 6 6 7 7 7 7 8 8 7 8 7 8 8 9 8 9 10 10 11 10 10 10 10 10 10 10 10 11 11 12 12 12 12 13 12 12 13 11 11 11 11 8 8 8 8 9 9 8 9 10 11 10 13 14 11 12 17 20 22 23 23 23 22 21 19 18 17 20 22 23 25 24 23 23 21 19 18 18 18 17
5 5 6 6 6 6 6 6 7 7 7 7 6 7 7 6 6 7 7 7 8 8 8 9 9 11 11 10 10 9 9 10 10 10 10 11 11 12 12 14 13 12 11 11 11 12 12 10 8 9 10 7 7 8 9 10 11 14 13 11 9 16 19 22 22 24 23 23 22 21 20 18 18 20 20 21 21 21 21 20 20 19 17 19 18
5 5 6 6 6 6 6 7 6 6 7 7 7 7 7 7 7 7 8 7 8 10 8 9 9 11 10 10 9 10 10 10 11 11 12 11 11 11 11 12 13 14 13 13 12 12 13 12 10 9 9 8 8 8 10 11 10 14 15 11 10 11 19 22 23 21 21 22 23 23 22 20 19 20 21 18 20 21 21 21 20 19 18 17 18
4 4 5 5 5 6 5 6 7 7 7 7 7 7 7 6 7 7 8 9 9 9 8 9 9 9 9 11 9 9 9 9 9 10 10 11 11 11 10 11 11 12 11 12 12 12 13 13 12 9 8 8 8 7 8 9 10 10 9 10 11 12 17 24 23 22 24 23 23 25 24 23 21 20 21 20 21 22 22 20 21 20 18 19 19
4 4 4 5 5 6 6 6 6 7 7 7 7 7 7 7 7 7 8 9 9 8 9 9 9 9 9 10 9 9 9 9 9 10 9 10 10 10 11 10 10 10 11 13 13 11 12 12 11 12 10 7 7 7 8 9 10 11 9 9 10 10 15 19 22 23 25 24 23 23 24 24 23 22 23 21 20 22 22 20 21 20 19 19 21
5 5 5 5 5 6 6 6 6 7 7 7 7 7 7 7 8 7 9 9 9 9 9 9 8 9 11 11 11 10 10 11 11 11 11 10 10 11 11 11 11 10 11 10 13 12 11 13 12 13 12 12 11 8 8 8 9 11 11 10 11 14 18 15 21 22 22 24 22 23 23 24 24 23 23 24 22 21 22 21 22 22 23 22 22
5 5 6 6 6 6 6 7 7 8 8 8 8 8 7 7 7 8 9 10 10 10 9 9 9 10 10 11 11 10 11 11 11 11 11 11 12 12 11 12 12 12 12 12 12 16 11 12 13 13 15 13 12 12 10 8 9 14 11 11 12 14 12 9 16 22 24 25 24 23 23 24 24 24 23 23 23 22 23 22 22 24 24 22 22
5 6 6 6 7 7 8 8 9 9 9 8 8 7 7 8 7 8 9 10 10 9 10 11 10 10 11 12 12 12 13 12 11 11 11 12 12 11 12 11 12 12 12 13 14 16 14 10 11 13 14 11 11 12 14 10 8 8 12 12 12 11 11 11 10 18 22 24 24 25 24 24 24 24 24 24 24 25 23 23 23 23 23 22 22
7 7 7 6 7 8 8 9 9 10 10 10 9 8 8 8 8 7 8 9 10 10 10 10 11 10 10 11 12 12 12 12 13 12 12 12 13 13 12 12 12 12 12 13 13 14 17 14 13 13 14 13 12 11 13 12 10 8 8 7 9 11 11 10 10 11 22 23 23 24 24 22 22 24 24 24 23 24 24 23 23 23 22 23 22
7 6 7 8 8 8 9 9 9 10 10 10 9 9 9 9 9 8 8 9 10 10 10 11 11 11 11 11 12 12 11 13 13 12 13 13 13 13 13 12 12 13 13 13 13 14 17 16 14 15 14 13 12 12 12 10 10 9 9 8 11 12 11 12 11 12 18 23 23 24 24 25 23 23 24 25 24 23 24 24 24 23 23 22 22
7 7 8 8 8 9 9 9 10 10 11 11 10 10 9 9 9 10 9 10 10 10 11 12 12 12 12 12 12 12 13 13 13 13 12 14 14 13 14 13 13 13 13 12 13 13 14 16 15 14 14 15 14 14 11 10 10 10 9 10 11 11 12 11 13 12 15 24 24 25 24 24 23 23 23 23 24 24 24 25 24 24 23 23 22
7 7 7 7 9 9 9 10 11 11 12 12 11 11 9 9 9 9 10 10 10 11 11 11 12 12 12 12 12 12 13 13 13 13 14 16 14 14 14 14 13 13 12 13 14 13 14 16 16 14 14 15 15 16 14 13 11 9 11 10 10 12 12 12 12 12 15 21 25 25 25 24 26 25 24 23 24 24 24 24 25 24 24 24 23
8 8 8 7 8 9 10 10 11 11 12 11 11 11 10 10 9 9 9 10 10 10 11 11 11 12 12 13 12 12 13 13 13 14 14 16 16 16 17 15 15 14 14 15 13 13 14 15 15 16 14 14 15 14 14 13 10 10 9 10 10 9 12 11 11 10 10 9 10 15 20 21 24 26 25 24 24 25 25 25 25 25 25 24 24
8 8 8 8 8 9 10 11 11 12 12 11 11 11 10 10 9 9 9 10 10 9 11 11 11 11 12 12 12 12 13 13 14 15 15 16 14 17 16 15 15 15 14 14 13 14 13 14 14 14 15 14 14 16 15 14 12 11 12 9 10 8 9 10 11 10 10 11 16 21 20 18 21 20 23 25 25 25 25 25 25 26 25 25 24
8 8 8 8 8 8 9 10 11 11 11 11 11 11 10 10 10 9 10 10 11 11 11 11 12 12 13 13 12 14 14 14 15 15 15 15 15 16 15 14 15 15 14 14 13 13 13 13 13 14 14 14 14 14 15 15 12 10 10 10 9 8 10 9 11 10 9 11 8 9 14 17 19 23 25 26 26 25 25 25 27 26 26 24 24
6 7 8 8 9 9 9 10 10 10 10 9 8 9 10 12 10 9 10 10 11 11 11 12 13 13 13 13 13 13 15 16 15 13 14 14 14 15 15 15 15 15 15 14 14 13 13 13 14 13 14 14 14 14 15 15 12 12 12 8 10 9 8 7 10 11 9 10 9 10 10 12 13 13 12 10 16 21 22 25 22 27 26 24 25
7 7 8 8 8 9 10 10 10 9 10 8 13 17 12 9 10 9 8 9 10 11 12 12 12 13 14 13 13 18 15 15 17 15 16 17 17 14 14 14 15 14 14 14 13 13 13 13 13 14 15 15 15 15 15 17 18 14 14 13 12 9 8 10 9 9 11 11 8 7 10 12 13 13 13 16 15 18 15 15 15 17 23 28 28
8 8 7 8 8 9 10 10 11 10 10 10 17 16 17 16 10 10 8 9 11 11 11 12 13 13 13 14 14 15 16 17 17 18 19 20 18 18 20 20 14 12 12 15 14 13 11 12 13 13 14 16 17 15 15 15 16 16 12 12 14 9 8 8 9 7 8 11 12 9 7 11 13 12 14 15 15 15 16 17 22 25 27 27 27
8 7 7 7 7 8 9 10 11 11 10 15 16 17 17 18 14 10 7 8 10 10 11 12 12 13 14 14 14 13 12 17 17 17 20 21 19 19 20 17 13 11 10 10 10 13 14 14 13 13 14 15 16 15 15 14 14 15 16 15 15 14 11 11 9 10 4 11 9 9 10 7 11 12 12 14 14 15 18 20 27 27 28 29 28
7 7 7 7 7 7 9 10 11 12 12 15 16 17 17 18 18 13 6 9 10 10 11 11 12 13 14 14 14 12 12 21 17 18 19 19 19 19 18 18 16 14 11 11 11 12 14 14 13 15 14 15 17 15 15 15 15 16 15 15 14 13 12 8 8 9 5 10 9 11 10 8 11 11 12 12 12 14 16 21 27 29 29 30 29
7 7 7 8 7 8 9 10 10 11 13 14 15 17 16 18 18 15 6 9 9 10 11 11 11 13 15 15 14 14 15 16 18 21 20 19 18 17 17 16 16 17 15 14 15 16 14 13 13 14 16 15 15 16 17 15 14 15 15 16 15 14 13 12 11 9 5 7 10 8 8 6 10 10 13 10 11 13 14 21 26 27 27 27 27
7 7 7 7 7 8 9 9 10 10 10 16 16 18 18 18 19 14 6 7 8 8 9 10 11 12 13 13 14 14 15 17 17 20 20 19 17 15 16 16 16 16 15 15 17 16 15 14 14 14 16 16 14 16 15 14 13 12 13 17 17 16 17 16 10 7 5 8 9 8 10 5 8 10 10 9 9 11 11 15 23 25 27 28 29
6 6 7 7 8 8 8 9 9 11 11 16 16 17 19 19 21 6 7 7 8 8 8 10 11 9 11 12 13 14 15 18 17 22 20 18 16 17 17 16 16 15 14 14 15 15 14 13 12 13 13 13 17 15 14 12 11 12 13 13 12 14 14 14 9 6 7 6 6 6 6 5 7 9 7 6 7 9 10 11 19 24 25 27 28
7 7 7 8 8 8 9 8 9 10 11 14 16 17 18 20 15 8 6 7 8 9 9 10 10 9 9 13 13 12 14 15 16 19 21 19 15 18 17 18 16 15 15 15 18 18 19 19 19 19 19 19 20 21 18 18 14 13 13 12 11 9 13 11 6 6 8 7 7 9 9 6 5 7 4 4 6 7 8 9 9 19 24 26 26
6 6 7 8 8 9 9 9 8 9 10 13 15 16 17 19 17 9 7 7 8 10 9 9 10 8 9 14 16 15 15 14 15 16 19 17 16 18 17 18 18 18 18 17 17 16 19 19 21 20 17 18 19 21 19 18 19 13 10 11 11 10 8 8 8 7 6 7 7 8 5 5 5 5 4 2 3 4 2 2 3 5 19 22 26
6 6 6 6 7 8 9 9 9 9 10 12 13 14 16 17 15 10 8 7 9 9 9 9 9 9 9 9 14 15 14 14 16 15 16 16 14 16 15 15 17 18 18 17 18 21 21 20 17 16 16 17 14 15 16 21 18 14 10 10 9 9 7 6 5 4 3 2 4 7 8 3 5 3 5 4 2 2 3 3 4 4 3 10 13
Wind_Direction
174 184 178 196 39 253 238 236 253 280 352 258 307 323 279 249 248 247 245 253 259 253 254 261 257 225 242 269 256 237 235 247 259 268 263 278 232 173 167 174 185 194 206 210 216 223 202 213 217 221 227 216 220 230 229 234 228 219 237 244 218 206 204 206 208 197 183 160 163 166 171 170 191 174 147 122 125 139 129 134 127 124 123 122 117
193 270 180 239 185 195 230 212 226 14 302 318 359 286 300 289 258 249 258 242 247 258 253 248 251 249 224 239 254 257 246 247 253 255 268 293 2 117 189 180 183 195 206 211 215 217 215 210 213 221 224 217 216 221 232 240 235 220 225 227 234 221 224 216 218 192 198 172 174 180 180 177 183 169 154 145 148 136 144 143 135 133 129 123 116
194 225 207 204 223 218 236 222 175 86 297 277 271 251 246 262 273 276 287 292 281 268 249 252 263 259 243 228 241 249 244 244 245 250 255 254 243 124 211 205 193 193 201 215 222 217 218 222 223 220 222 221 206 215 220 236 228 222 218 225 228 223 242 213 218 207 202 189 186 181 178 177 173 173 169 159 158 147 141 156 143 138 132 127 120
243 206 191 204 194 206 232 255 244 182 194 218 218 249 268 274 294 308 296 285 283 279 271 266 267 272 273 259 232 227 242 233 233 240 244 253 258 143 122 206 219 212 206 207 221 230 227 219 225 220 220 219 220 212 217 222 221 218 219 228 213 214 238 212 219 215 208 200 190 187 184 183 181 170 173 167 153 150 143 154 149 149 141 134 131
132 239 171 189 153 208 199 199 231 269 291 299 291 276 268 266 256 250 261 265 263 261 274 276 267 265 274 276 280 268 251 245 239 234 237 234 229 203 162 163 228 230 230 217 213 219 228 223 224 218 220 217 215 214 218 220 219 218 216 218 214 206 222 229 217 219 205 207 190 190 188 185 178 177 167 163 160 146 148 153 158 161 150 140 137
170 163 217 194 191 225 233 230 284 297 277 254 257 260 276 288 293 283 274 270 269 273 267 264 268 276 273 272 270 273 271 259 252 242 239 242 234 214 200 160 176 207 217 227 218 213 216 220 225 224 221 215 214 216 219 221 219 217 213 212 209 210 216 225 215 220 207 205 194 192 186 184 180 176 165 160 164 166 153 157 165 166 161 149 142
167 181 208 212 210 199 222 203 324 292 272 271 283 290 281 281 285 286 287 283 280 281 279 276 279 272 274 278 275 273 268 266 255 251 252 247 244 239 219 188 173 199 224 218 216 213 212 212 217 224 219 215 216 214 222 220 221 211 202 211 208 211 211 216 212 220 207 205 199 194 187 183 179 178 174 171 170 173 177 164 173 163 160 160 150
188 186 208 241 227 203 201 148 232 253 272 284 275 274 275 275 277 278 284 282 282 278 276 277 275 277 276 276 272 275 280 270 257 258 256 259 257 248 243 212 197 185 183 232 232 214 208 207 212 217 223 221 216 217 220 222 227 194 201 216 213 207 205 211 214 220 209 206 205 197 190 185 179 179 175 174 173 177 180 186 171 167 164 161 156
196 183 243 260 242 233 131 175 233 277 289 278 279 290 291 290 289 288 286 289 288 285 282 281 280 277 275 273 279 276 268 272 277 275 269 256 260 262 257 245 212 203 184 210 238 232 204 206 205 210 212 223 218 217 219 222 223 205 211 215 211 211 202 206 211 219 211 206 207 200 191 186 183 182 175 173 178 179 183 180 167 168 164 160 160
170 194 219 279 343 339 12 343 292 299 288 285 290 295 301 301 300 297 297 296 293 296 298 291 292 291 287 283 273 274 270 268 280 281 272 272 273 258 255 256 241 219 218 216 221 215 185 203 207 205 210 208 213 215 220 221 222 212 215 215 212 210 205 205 208 215 212 205 208 202 194 191 185 186 175 176 177 176 180 172 165 163 163 162 162
165 256 326 333 324 351 329 326 306 294 295 293 298 303 306 304 303 305 303 294 297 298 299 301 296 293 286 283 279 265 272 269 264 268 269 271 270 267 264 258 248 245 231 229 234 234 191 185 200 208 210 208 204 211 217 223 222 220 213 217 212 210 212 212 212 211 208 209 210 203 193 191 187 187 176 176 176 175 176 174 164 164 166 165 165
57 30 10 360 333 345 342 322 307 300 297 309 315 317 322 316 311 309 306 301 299 296 295 298 298 292 289 283 274 272 258 266 272 267 274 270 265 277 267 264 261 250 250 247 247 245 229 203 191 201 206 200 204 207 214 221 223 230 216 218 216 210 211 212 215 208 206 211 213 202 196 191 188 188 180 178 177 175 175 173 173 169 170 169 168
47 25 12 358 345 338 327 328 314 305 318 316 320 321 320 318 315 310 309 305 304 298 303 302 300 291 285 280 271 261 248 239 250 265 267 273 274 270 278 270 260 260 255 249 234 236 259 193 190 195 213 207 196 205 209 214 213 216 221 219 219 217 212 213 214 213 207 208 212 203 197 193 191 190 183 182 180 178 177 175 178 176 174 172 171
39 32 25 2 355 334 326 319 319 329 321 316 316 319 319 328 321 317 308 301 302 315 314 309 294 306 308 306 294 282 261 252 252 279 294 297 275 274 277 296 285 267 259 247 247 228 233 234 198 206 209 219 207 201 206 207 209 209 214 226 221 218 211 211 214 214 210 205 208 204 197 195 193 192 187 185 187 182 181 176 176 176 177 174 174
27 19 14 7 360 349 346 342 339 339 330 327 326 323 329 325 329 325 316 311 302 307 306 312 304 311 307 296 304 313 351 316 330 298 267 255 256 251 258 257 267 274 281 277 290 215 238 256 254 236 217 220 217 211 204 209 213 202 209 218 225 220 215 211 214 214 213 205 206 204 198 198 195 194 191 190 190 189 183 177 176 175 177 176 178
23 16 16 9 360 354 345 350 344 345 338 330 332 329 331 332 331 327 320 319 316 317 314 305 304 321 313 314 307 307 311 90 290 263 233 255 256 261 271 275 281 272 259 270 261 310 287 235 228 227 243 261 238 200 204 208 210 200 200 208 221 216 214 214 214 214 216 205 203 202 200 201 199 196 195 193 192 194 183 180 177 175 177 179 181
27 23 19 18 6 0 354 349 351 352 349 339 338 337 334 330 340 332 332 325 321 320 313 311 299 290 294 306 307 295 322 328 329 309 24 264 225 234 257 264 264 273 264 256 267 276 284 268 243 222 224 241 239 212 217 226 214 208 197 202 207 208 211 216 215 213 217 208 200 199 197 202 200 195 197 186 195 195 184 183 180 177 179 180 182
27 31 27 18 16 12 9 357 358 357 359 345 341 335 338 343 342 335 330 330 322 317 311 311 298 282 267 255 282 294 307 310 314 312 274 258 232 209 234 242 260 257 249 244 252 255 236 261 257 241 214 226 248 272 236 215 205 209 202 199 200 202 206 213 218 213 219 212 206 200 196 198 201 195 195 185 193 193 190 186 183 183 182 184 183
37 33 32 24 12 13 14 10 3 355 348 345 348 347 344 340 340 337 333 328 328 316 317 318 312 297 294 286 273 265 269 287 304 308 304 307 296 265 223 212 235 250 253 227 229 240 245 238 248 255 252 231 230 223 252 261 227 237 227 198 194 200 201 202 218 217 216 216 210 206 200 193 199 195 196 188 190 192 189 189 186 189 188 186 188
46 37 31 33 25 18 13 13 360 5 350 354 351 352 345 339 340 340 334 333 328 322 319 319 318 311 311 300 287 283 286 281 277 268 291 299 298 285 287 270 251 257 254 259 236 224 227 231 261 258 249 228 211 209 227 226 210 223 232 198 188 197 200 201 209 226 224 220 214 213 202 195 196 197 198 192 189 192 189 190 189 190 189 190 192
41 35 27 26 23 24 24 13 5 359 353 357 345 347 346 338 336 340 339 333 327 323 321 324 322 316 320 312 310 302 295 289 295 280 284 291 294 300 299 263 243 248 265 248 263 262 251 225 224 238 225 217 208 208 202 215 228 232 233 225 195 195 196 200 205 217 232 240 225 214 209 198 194 196 198 195 190 191 190 190 189 191 189 192 194
50 36 20 18 15 16 12 8 3 358 355 352 346 346 344 339 338 334 334 335 332 332 336 330 327 327 323 318 312 311 303 300 288 295 294 278 278 296 301 304 296 283 223 228 237 242 243 249 230 227 229 226 221 209 201 208 210 220 229 219 197 195 197 198 201 211 222 230 237 223 219 203 200 196 197 196 193 191 192 192 190 192 192 193 194
35 43 26 19 21 19 11 9 13 9 3 354 356 347 343 345 334 335 338 340 336 330 329 329 328 325 325 324 322 319 321 312 314 313 303 301 302 298 303 299 302 301 287 268 254 253 251 239 228 236 228 227 229 225 220 214 221 222 221 201 198 205 199 199 199 206 215 221 218 222 214 199 203 201 195 197 194 193 194 193 193 192 194 195 191
39 34 27 22 20 21 19 16 15 6 5 354 351 343 345 345 336 339 339 344 331 334 336 329 331 325 321 323 321 322 318 319 322 317 314 310 305 301 301 305 301 297 300 292 277 268 250 252 245 241 233 228 221 219 225 220 214 220 218 195 192 205 208 201 200 203 210 215 213 216 220 210 201 203 194 197 196 193 194 195 194 194 195 194 196
42 36 32 26 26 24 17 17 13 11 6 3 354 357 1 342 347 348 352 344 353 347 334 330 333 326 323 322 320 320 320 323 320 320 318 315 308 304 302 305 299 300 296 295 288 277 266 259 255 251 249 237 229 220 218 219 218 213 215 205 193 198 210 207 203 203 206 210 210 210 215 215 210 203 199 195 196 196 195 195 197 193 193 194 198
50 42 29 27 31 29 23 23 17 13 11 6 359 2 358 351 357 3 353 357 353 346 335 342 338 339 335 327 326 325 318 317 317 317 318 320 319 320 317 313 309 303 301 296 293 290 277 262 247 234 238 238 238 227 215 218 216 215 210 209 202 205 211 210 207 204 205 206 207 207 208 208 210 209 204 197 194 196 197 193 196 192 189 191 198
48 45 36 38 34 33 29 22 18 15 9 8 2 5 359 355 2 1 358 358 349 344 343 345 345 345 336 336 332 320 321 323 321 322 324 322 320 323 320 316 314 309 302 300 297 285 287 286 274 266 265 259 237 233 222 218 216 214 208 205 209 208 213 216 211 205 203 204 206 207 205 205 201 202 214 200 196 194 195 193 192 193 190 188 196
59 47 48 40 32 26 25 28 18 13 11 8 7 8 360 6 2 3 3 357 347 347 349 344 346 344 340 339 330 333 333 338 335 334 332 328 320 313 312 309 310 309 311 304 301 296 298 296 293 276 264 251 239 229 227 226 225 208 208 209 212 214 212 215 215 204 206 207 206 207 205 201 200 197 206 204 197 193 195 193 191 193 193 189 194
58 52 46 42 39 19 26 19 20 16 12 13 8 11 3 13 5 4 5 357 350 352 352 351 348 346 344 341 339 335 334 336 332 332 327 325 325 322 317 313 317 316 315 307 302 304 302 302 300 297 282 249 240 230 228 229 223 206 212 218 218 221 209 213 212 203 203 208 207 208 206 202 199 198 201 206 199 194 197 194 191 191 193 195 195
66 59 46 43 38 29 24 27 19 19 17 15 10 11 7 14 5 8 10 356 355 353 354 353 352 349 346 339 337 333 339 334 333 328 328 328 324 325 323 320 318 306 308 310 307 309 305 307 304 298 297 265 239 233 229 230 220 203 219 215 220 221 220 212 213 209 205 205 204 207 207 203 200 198 199 203 203 197 197 196 191 193 192 196 199
55 48 47 41 33 33 24 24 20 18 17 16 11 16 15 13 10 10 6 357 358 357 357 352 350 349 348 345 343 344 350 342 338 341 337 333 335 333 329 325 321 318 314 309 305 300 316 309 313 312 306 294 276 261 242 231 221 212 219 218 217 216 220 216 213 212 209 207 203 208 209 204 201 196 198 199 203 201 197 199 194 194 197 197 198
59 51 44 42 35 32 35 26 26 19 22 17 12 14 19 17 14 11 4 1 1 359 354 351 352 352 347 345 348 350 353 346 345 342 339 344 343 338 334 329 323 320 314 306 298 299 304 302 303 304 305 304 294 272 253 238 221 214 223 221 220 212 216 223 217 209 209 210 202 203 208 205 201 198 196 198 199 202 199 199 195 197 197 196 196
63 58 51 40 41 37 33 35 24 23 20 19 13 12 19 13 15 14 8 6 0 359 356 355 355 351 353 352 351 354 354 348 346 342 345 344 344 339 334 331 325 323 322 317 308 304 304 305 301 297 299 304 300 288 272 249 233 221 222 230 223 219 220 219 217 215 212 211 208 206 207 206 201 199 196 196 198 200 200 199 197 196 196 195 194
63 61 55 47 46 43 38 33 29 26 21 21 14 9 12 9 10 17 9 3 3 1 360 356 356 359 354 350 351 355 353 349 350 348 347 347 343 336 334 331 325 321 322 315 307 305 303 308 305 305 300 292 284 280 275 260 244 228 225 216 223 222 220 218 218 209 210 214 208 206 202 210 206 201 197 196 195 195 198 198 198 194 195 196 195
66 60 56 54 46 42 43 36 31 26 22 17 17 8 11 6 7 14 6 4 5 1 1 359 0 356 357 355 358 357 355 350 352 349 349 347 340 335 331 327 322 318 316 314 309 304 304 302 305 301 299 296 287 287 287 282 255 230 224 220 225 227 224 219 218 223 200 209 204 206 200 201 206 205 201 197 195 193 195 196 198 196 195 195 195
76 64 59 57 53 46 40 37 31 29 21 18 16 11 11 2 6 8 5 8 5 4 4 1 1 360 360 356 360 359 355 351 350 348 347 344 339 335 331 327 320 317 314 312 307 303 302 300 300 298 300 297 292 282 274 268 255 248 227 231 227 228 228 221 222 223 204 198 201 204 203 200 200 208 206 199 197 195 195 195 196 197 196 195 194
72 70 69 63 56 49 43 36 33 28 22 17 13 9 6 357 5 10 7 10 5 10 9 4 6 3 360 0 359 360 356 352 351 347 344 341 338 333 329 326 321 319 315 312 308 303 300 299 299 297 296 293 291 286 277 272 254 238 245 234 226 229 227 224 226 222 216 194 199 200 202 201 199 203 205 203 200 198 196 195 195 196 195 195 194
78 74 69 57 55 54 46 40 33 28 24 18 14 6 1 355 8 15 10 13 7 13 9 10 6 6 4 2 360 360 357 354 350 346 343 340 336 331 329 326 324 321 318 314 310 307 303 298 300 300 298 295 293 287 285 278 271 263 250 240 238 227 231 232 226 223 222 193 196 201 203 203 203 203 203 204 203 200 198 196 196 196 196 196 195
82 80 72 68 59 54 51 45 37 28 24 21 15 8 0 356 7 17 12 16 9 19 12 11 11 7 8 2 358 359 356 353 350 346 341 338 334 328 326 326 324 322 317 314 311 307 304 302 300 299 300 299 298 298 294 289 270 252 247 236 242 228 226 227 233 221 220 202 197 192 196 196 200 203 205 206 206 203 200 197 197 197 196 196 196
73 71 71 70 66 59 53 48 42 34 27 25 18 7 3 360 4 17 14 19 12 19 13 11 12 10 8 2 358 356 352 349 348 343 342 338 333 327 325 323 320 315 313 311 309 306 303 302 300 303 301 302 301 294 292 289 276 263 245 248 249 235 231 220 222 224 215 211 173 199 201 198 202 204 203 204 207 207 204 201 199 197 196 195 196
70 70 72 68 64 60 53 49 44 38 32 24 16 358 355 356 341 353 22 17 20 18 13 15 15 10 6 1 356 356 348 348 346 341 341 335 330 327 323 319 314 314 311 310 310 306 304 302 304 303 303 302 302 304 302 298 289 284 276 229 245 245 238 223 226 218 206 209 201 191 197 194 198 202 200 201 212 209 210 205 202 199 195 195 196
74 72 69 65 64 59 53 47 45 39 32 24 355 352 354 356 342 333 16 21 23 19 17 17 9 10 6 1 354 351 346 349 342 340 338 331 325 320 313 310 308 308 311 315 315 312 308 311 316 316 309 304 301 300 300 300 301 298 285 268 251 238 236 239 237 222 208 208 210 196 196 194 193 201 197 206 207 200 208 203 206 195 197 196 197
73 72 69 70 63 58 56 49 41 40 34 12 357 356 349 350 349 333 15 23 28 22 19 17 10 10 7 359 357 352 353 352 345 344 336 329 324 319 308 299 287 292 314 324 325 324 324 322 318 312 306 302 300 298 298 299 300 299 296 287 271 248 232 233 240 224 206 202 213 216 198 189 192 198 200 205 201 199 206 206 204 197 199 198 197
73 72 70 65 66 65 58 52 44 37 34 10 1 356 350 345 344 332 359 27 30 22 20 18 13 11 5 360 358 357 358 352 349 346 337 330 326 320 310 308 311 312 312 316 325 331 330 323 317 313 311 304 303 304 303 304 302 306 308 303 293 270 245 234 234 238 192 187 203 212 223 176 190 201 203 206 201 201 203 202 198 201 197 197 197
76 69 65 64 63 62 61 54 45 36 32 10 0 359 349 345 338 335 8 33 31 24 21 19 16 11 6 360 1 1 355 355 357 349 341 335 332 324 320 333 336 342 333 336 347 334 326 317 315 316 316 313 306 303 304 307 308 297 294 290 286 279 253 231 224 236 180 185 205 221 222 183 185 200 212 209 203 203 200 204 202 200 198 197 195
79 77 68 63 63 63 58 56 51 40 29 6 3 360 351 347 337 330 27 31 35 27 22 23 17 16 11 7 6 3 2 1 358 352 346 340 338 338 343 342 340 340 343 359 349 338 331 326 320 312 316 317 307 304 304 301 299 298 297 293 297 294 272 242 235 229 192 172 201 203 223 195 186 190 210 209 197 201 204 202 201 203 200 197 196
79 72 72 68 60 60 62 58 54 45 31 11 6 360 356 346 341 314 40 24 31 29 28 25 23 20 15 12 12 10 9 6 359 349 349 345 341 345 344 342 340 340 340 346 344 340 336 329 320 311 313 314 306 303 301 296 283 285 284 283 286 287 287 279 245 225 190 188 202 199 229 192 181 201 207 199 191 201 205 202 201 201 200 198 196
86 83 78 70 63 61 61 61 56 47 34 17 7 4 358 352 337 337 28 27 20 31 28 24 28 32 33 27 17 18 12 9 358 347 348 345 352 353 349 346 345 342 343 345 336 330 324 320 314 310 308 304 303 297 297 293 285 285 287 279 274 274 273 252 226 206 219 191 191 195 218 207 172 199 209 187 178 201 203 207 199 202 204 203 200
96 89 82 73 66 60 56 57 59 52 40 21 9 6 2 356 347 347 14 27 21 22 29 26 24 62 51 37 21 14 7 4 353 345 349 338 360 360 355 352 351 348 348 346 340 337 332 325 321 318 313 314 320 317 313 315 309 301 299 291 275 281 260 243 219 215 223 199 202 205 217 227 178 193 185 159 175 193 198 208 207 203 204 205 204
99 96 92 84 77 67 60 53 45 57 48 32 15 8 5 358 349 336 11 11 27 22 18 26 22 42 85 67 27 10 2 355 342 340 347 348 1 5 359 356 354 356 352 348 352 347 343 336 336 331 325 326 332 334 326 327 324 317 333 328 323 311 292 240 234 218 210 184 200 188 202 212 155 171 137 41 73 33 28 45 25 204 208 209 206
102 97 91 93 91 83 73 64 39 49 53 42 24 12 6 0 355 344 15 10 10 22 18 17 23 16 16 55 39 5 353 345 340 338 343 355 359 8 360 357 356 355 349 336 348 351 351 347 340 337 338 339 340 345 338 331 331 333 341 339 338 341 336 351 322 252 167 202 179 171 207 157 155 146 137 123 127 50 39 18 41 27 193 205 213